Weather in Picton

New Zealand     41°17′15″S   174°00′11″E
temp.,
°C
wind,
m/s
gust,
m/s
humid.,
%
clouds,
%
prec.,
mm/h
press.,
hPa
HPBL,
m
13 august, sat
sat1300:00+1sw11973 0.0 102417
03:000ssw11975 0.0 102416
06:000w11965 0.0 102517
09:00+4sw118339 0.0 1026109
12:00+10nnw016069 0.0 10261059
15:00+9n226575 0.0 1024795
18:00+4nnw11950 0.0 102532
21:00+3wnw11978 0.0 102719
14 august, sun
sun1400:00+2wnw11962 0.0 102719
03:00+2wnw21962 0.0 102724
06:00+2nw21975 0.0 102732
09:00+6nw23860 0.0 1027174
12:00+11nnw34590 0.0 1025787
15:00+10nnw35650 0.0 1023613
18:00+5nw23944 0.0 102393
21:00+4wnw21954 0.0 102439
15 august, mon
mon1500:00+3wsw119592 0.0 102614
03:00+3w119651 0.0 102713
06:00+3sse0197100 0.0 102715
09:00+6w0189100 0.0 102985
12:00+10nnw2465100 0.0 1027780
15:00+11nnw3667100 0.0 1026955
18:00+7nnw2392100 0.0 102674
21:00+8nw2491100 0.0 1026146
16 august, tue
tue1600:00+8nw2396100 0.0 102688
03:00+9nnw2396100 0.1 1025125
06:00+9n2699100 2.8 1024405
09:00+10nnw2899100 4.6 1023616
12:00+12nnw41697100 14.3 10231332
15:00+12nnw61597100 3.6 10221202
18:00+12nnw61697100 3.9 10211225
21:00+12nnw61695100 1.0 10221261
17 august, wed
wed1700:00+12nnw41497100 2.0 10231141
03:00+12n31198100 3.9 10221018
06:00+11n2599100 8.6 1022304
09:00+12n3698100 2.9 1024417
12:00+12n3999100 9.1 1023700
15:00+12n2999100 6.8 1022567
18:00+12nnw1199100 9.0 102154
21:00+12nnw2498100 1.7 1021128